GW5446 Weather Reports


time (UTC)temp
F
wind
direction
speed
knots
gust
knots
rain 1hr
in
rain 24hr
in
rain mn
in
humidity
%
barometer
mb
20260504221009 71 110 4.3 13.0 0.00 0.00 0.00 30 1010.0
20260504220513 72 71 3.5 13.0 0.00 0.00 0.00 30 1010.0
20260504220028 72 123 1.7 7.0 0.00 0.00 0.00 32 1009.9
20260504215511 71 127 1.7 6.1 0.00 0.00 0.00 34 1010.0
20260504215011 71 281 1.7 6.1 0.00 0.00 0.00 35 1010.1
20260504214530 71 153 2.6 11.3 0.00 0.00 0.00 35 1010.1
20260504214009 71 103 4.3 11.3 0.00 0.00 0.00 34 1010.1
20260504213514 71 77 0.9 7.8 0.00 0.00 0.00 34 1010.1
20260504213030 71 274 0.9 7.8 0.00 0.00 0.00 32 1010.1
20260504212510 70 167 2.6 7.8 0.00 0.00 0.00 31 1010.2
20260504212013 70 98 4.3 7.8 0.00 0.00 0.00 36 1010.3
20260504211534 71 159 1.7 6.1 0.00 0.00 0.00 36 1010.2
20260504211008 70 304 2.6 7.0 0.00 0.00 0.00 33 1010.2
20260504210509 70 122 3.5 7.0 0.00 0.00 0.00 31 1010.2
20260504210036 70 173 1.7 7.0 0.00 0.00 0.00 33 1010.3
20260504205509 70 150 2.6 8.7 0.00 0.00 0.00 35 1010.4
20260504205010 70 96 3.5 8.7 0.00 0.00 0.00 34 1010.4
20260504204537 69 121 3.5 7.0 0.00 0.00 0.00 36 1010.4
20260504204009 69 145 2.6 7.0 0.00 0.00 0.00 35 1010.4
20260504203509 70 102 2.6 7.0 0.00 0.00 0.00 34 1010.4
20260504203031 69 137 3.5 7.0 0.00 0.00 0.00 42 1010.4
20260504202510 69 113 1.7 10.4 0.00 0.00 0.00 34 1010.4
20260504202012 69 141 3.5 10.4 0.00 0.00 0.00 36 1010.5
20260504201530 68 110 2.6 9.6 0.00 0.00 0.00 35 1010.5
20260504201009 68 105 5.2 11.3 0.00 0.00 0.00 34 1010.5
20260504200509 69 109 3.5 11.3 0.00 0.00 0.00 34 1010.5
20260504200030 68 121 4.3 8.7 0.00 0.00 0.00 38 1010.6
20260504195509 68 155 5.2 8.7 0.00 0.00 0.00 37 1010.5
20260504195011 68 116 2.6 11.3 0.00 0.00 0.00 44 1010.7
20260504194529 68 155 5.2 11.3 0.00 0.00 0.00 37 1010.6
20260504194010 67 144 1.7 7.0 0.00 0.00 0.00 38 1010.8
20260504193511 68 82 5.2 9.6 0.00 0.00 0.00 36 1010.7
20260504193030 68 259 1.7 9.6 0.00 0.00 0.00 36 1010.8
20260504192508 67 131 0.9 8.7 0.00 0.00 0.00 34 1010.8
20260504192010 67 112 5.2 8.7 0.00 0.00 0.00 39 1010.8
20260504191532 67 80 0.9 7.8 0.00 0.00 0.00 41 1010.9
20260504191011 67 117 1.7 7.8 0.00 0.00 0.00 35 1011.0
20260504190513 67 184 1.7 7.8 0.00 0.00 0.00 35 1010.9
20260504190030 67 110 3.5 7.8 0.00 0.00 0.00 37 1011.0
20260504185508 67 109 2.6 7.8 0.00 0.00 0.00 40 1011.0
20260504185009 66 150 2.6 10.4 0.00 0.00 0.00 38 1011.0
20260504184528 66 98 4.3 10.4 0.00 0.00 0.00 38 1011.0
20260504184009 66 126 4.3 10.4 0.00 0.00 0.00 42 1011.0
20260504183512 66 81 3.5 11.3 0.00 0.00 0.00 38 1011.2
20260504183030 66 155 2.6 11.3 0.00 0.00 0.00 39 1011.1
20260504182513 66 145 3.5 11.3 0.00 0.00 0.00 35 1011.1
20260504182011 66 236 3.5 8.7 0.00 0.00 0.00 37 1011.2
20260504181529 66 119 3.5 8.7 0.00 0.00 0.00 34 1011.3
20260504181011 66 77 4.3 10.4 0.00 0.00 0.00 36 1011.3
20260504180510 65 167 4.3 10.4 0.00 0.00 0.00 38 1011.3
20260504180030 65 314 0.9 7.0 0.00 0.00 0.00 35 1011.4
20260504175511 65 172 1.7 7.0 0.00 0.00 0.00 36 1011.3
20260504175009 65 226 1.7 6.1 0.00 0.00 0.00 40 1011.4
20260504174528 64 310 2.6 6.1 0.00 0.00 0.00 36 1011.3
20260504174009 64 342 1.7 7.0 0.00 0.00 0.00 38 1011.4
20260504173511 64 152 2.6 11.3 0.00 0.00 0.00 41 1011.4
20260504173029 63 290 1.7 11.3 0.00 0.00 0.00 37 1011.5
20260504172512 63 296 3.5 11.3 0.00 0.00 0.00 39 1011.6
20260504172010 64 21 4.3 7.8 0.00 0.00 0.00 39 1011.5
20260504171528 63 166 2.6 7.8 0.00 0.00 0.00 39 1011.5
20260504171010 63 91 2.6 9.6 0.00 0.00 0.00 39 1011.5
20260504170518 63 335 2.6 10.4 0.00 0.00 0.00 38 1011.5
20260504151007 52 124 2.6 3.5 0.00 0.00 0.00 65 1012.0
20260504150510 52 64 2.6 3.5 0.00 0.00 0.00 67 1012.0
20260504141012 48 0 0.0 0.0 0.00 0.00 0.00 79 1011.6
20260504140510 47 0 0.0 0.0 0.00 0.00 0.00 79 1011.5
20260504130509 43 0 0.0 0.0 0.00 0.00 0.00 77 1010.8
20260504110509 44 0 0.0 2.6 0.00 0.00 0.00 76 1010.1
20260504100510 45 0 0.0 0.0 0.00 0.00 0.00 78 1009.8
20260504081531 46 0 0.0 0.0 0.00 0.00 0.00 73 1009.1
20260504081013 46 0 0.0 0.0 0.00 0.00 0.00 73 1009.1
20260504080510 48 0 0.0 0.0 0.00 0.00 0.00 73 1009.0
20260504050511 53 0 0.9 3.5 0.00 0.00 0.00 67 1008.8
20260504045510 53 0 0.0 1.7 0.00 0.00 0.00 63 1008.8
20260504045010 53 0 0.0 4.3 0.00 0.00 0.00 63 1008.7
20260504044529 53 0 1.7 4.3 0.00 0.00 0.00 64 1008.7
20260504044010 53 264 0.0 3.5 0.00 0.00 0.00 67 1008.7
20260504043510 54 266 0.9 2.6 0.00 0.00 0.00 63 1008.6
20260504043029 53 0 0.0 1.7 0.00 0.00 0.00 69 1008.6
20260504042510 54 0 0.0 1.7 0.00 0.00 0.00 67 1008.6
20260504042011 54 0 0.0 2.6 0.00 0.00 0.00 64 1008.6
20260504041539 55 0 0.0 3.5 0.00 0.00 0.00 62 1008.6
20260504041008 55 355 0.9 3.5 0.00 0.00 0.00 62 1008.6
20260504040510 56 285 1.7 3.5 0.00 0.00 0.00 60 1008.6
20260504040032 56 295 2.6 3.5 0.00 0.00 0.00 59 1008.6
20260504035511 57 293 1.7 3.5 0.00 0.00 0.00 58 1008.7
20260504035011 57 1 1.7 3.5 0.00 0.00 0.00 56 1008.6
20260504034533 56 295 0.9 1.7 0.00 0.00 0.00 60 1008.6
20260504034010 57 0 0.0 1.7 0.00 0.00 0.00 58 1008.6
20260504033509 58 0 0.0 0.0 0.00 0.00 0.00 55 1008.5
20260504033031 58 0 0.0 0.0 0.00 0.00 0.00 58 1008.3
20260504032515 58 0 0.0 0.0 0.00 0.00 0.00 56 1008.3
20260504032011 57 0 0.0 0.0 0.00 0.00 0.00 60 1008.2
20260504031533 58 0 0.0 0.0 0.00 0.00 0.00 61 1008.1
20260504031010 58 0 0.0 0.0 0.00 0.00 0.00 60 1008.0
20260504030509 58 0 0.0 0.0 0.00 0.00 0.00 58 1008.1
20260504030034 59 0 0.0 0.9 0.00 0.00 0.00 60 1008.0
20260504025509 60 0 0.0 1.7 0.00 0.00 0.00 57 1008.0
20260504025010 59 282 0.9 3.5 0.00 0.00 0.00 59 1008.0
20260504024531 60 273 1.7 3.5 0.00 0.00 0.00 55 1007.8
20260504024010 61 281 1.7 2.6 0.00 0.00 0.00 56 1007.9
20260504023509 61 283 1.7 1.7 0.00 0.00 0.00 55 1007.9
20260504023030 62 0 0.0 1.7 0.00 0.00 0.00 54 1007.9
20260504022511 62 0 0.0 2.6 0.00 0.00 0.00 53 1008.0
20260504022009 62 275 0.9 2.6 0.00 0.00 0.00 55 1007.9
20260504021530 63 0 0.0 0.0 0.00 0.00 0.00 52 1007.9
20260504021012 64 0 0.0 0.0 0.00 0.00 0.00 51 1007.9
20260504020510 64 0 0.0 0.0 0.00 0.00 0.00 50 1008.0
20260504020036 63 0 0.0 0.0 0.00 0.00 0.00 53 1008.0
20260504015509 64 0 0.0 0.0 0.00 0.00 0.00 52 1007.9
20260504015010 65 0 0.0 0.0 0.00 0.00 0.00 47 1008.0
20260504014532 66 0 0.0 0.0 0.00 0.00 0.00 50 1008.0
20260504014010 66 0 0.0 0.0 0.00 0.00 0.00 45 1008.0
20260504013513 65 0 0.0 0.0 0.00 0.00 0.00 48 1008.0
20260504013032 66 0 0.0 0.0 0.00 0.00 0.00 46 1008.0
20260504012511 67 0 0.0 0.0 0.00 0.00 0.00 49 1008.1
20260504012011 68 0 0.0 0.9 0.00 0.00 0.00 41 1008.1
20260504011530 71 0 0.0 2.6 0.00 0.00 0.00 38 1008.1
20260504011010 70 352 1.7 2.6 0.00 0.00 0.00 43 1008.1
20260504010511 73 0 0.0 3.5 0.00 0.00 0.00 45 1008.2
20260504010029 74 321 0.0 3.5 0.00 0.00 0.00 30 1008.2
20260504005510 74 252 0.0 3.5 0.00 0.00 0.00 32 1008.2
20260504005011 75 0 0.9 3.5 0.00 0.00 0.00 30 1008.3
20260504004528 75 181 1.7 4.3 0.00 0.00 0.00 30 1008.3
20260504004010 75 290 0.9 4.3 0.00 0.00 0.00 30 1008.3
20260504003510 76 0 0.0 4.3 0.00 0.00 0.00 27 1008.4
20260504003028 76 213 0.9 4.3 0.00 0.00 0.00 30 1008.6
20260504002510 76 248 1.7 5.2 0.00 0.00 0.00 30 1008.5
20260504002008 76 0 1.7 5.2 0.00 0.00 0.00 29 1008.6
20260504001536 76 261 0.9 7.0 0.00 0.00 0.00 29 1008.6
20260504001008 76 168 2.6 7.0 0.00 0.00 0.00 31 1008.6
20260504000509 76 141 1.7 7.0 0.00 0.00 0.00 30 1008.6
20260504000030 76 290 1.7 7.8 0.00 0.00 0.00 30 1008.7
20260503235509 75 200 5.2 7.8 0.00 0.00 0.00 32 1008.6
20260503235010 76 210 2.6 7.8 0.00 0.00 0.00 35 1008.8
20260503234529 76 135 2.6 7.8 0.00 0.00 0.00 33 1008.7
20260503234011 75 149 5.2 7.8 0.00 0.00 0.00 29 1008.8
20260503233510 76 162 3.5 7.8 0.00 0.00 0.00 30 1008.8
20260503233029 76 183 2.6 7.0 0.00 0.00 0.00 36 1008.9
20260503232509 76 160 1.7 9.6 0.00 0.00 0.00 34 1008.9
20260503232010 76 224 3.5 9.6 0.00 0.00 0.00 30 1008.9
20260503231531 75 176 3.5 9.6 0.00 0.00 0.00 29 1009.0
20260503231011 75 150 3.5 9.6 0.00 0.00 0.00 28 1009.1
20260503230513 76 206 4.3 9.6 0.00 0.00 0.00 29 1009.2
20260503230037 76 272 2.6 10.4 0.00 0.00 0.00 32 1009.3
20260503225507 76 142 3.5 10.4 0.00 0.00 0.00 28 1009.4
20260503225010 76 191 1.7 9.6 0.00 0.00 0.00 29 1009.4
20260503224530 76 167 1.7 9.6 0.00 0.00 0.00 31 1009.4
20260503224008 75 184 5.2 9.6 0.00 0.00 0.00 29 1009.6
20260503223511 75 186 1.7 7.8 0.00 0.00 0.00 29 1009.6
20260503223028 75 266 2.6 7.8 0.00 0.00 0.00 29 1009.8
20260503222510 75 211 3.5 12.2 0.00 0.00 0.00 29 1009.8
20260503222010 75 146 5.2 12.2 0.00 0.00 0.00 29 1009.9
20260503221531 75 142 4.3 10.4 0.00 0.00 0.00 29 1010.0